TimeCDT,TemperatureF,Dew PointF,Humidity,Sea Level PressureIn,VisibilityMPH,Wind Direction,Wind SpeedMPH,Gust SpeedMPH,PrecipitationIn,Events,Conditions,WindDirDegrees,DateUTC
12:53 AM,64.9,46.9,52,29.67,10.0,SW,11.5,-,N/A,,Clear,220,2013-03-16 05:53:00
1:53 AM,59.0,48.0,67,29.71,10.0,West,9.2,-,N/A,,Clear,270,2013-03-16 06:53:00
2:53 AM,59.0,46.9,64,29.71,10.0,West,11.5,-,N/A,,Clear,280,2013-03-16 07:53:00
3:53 AM,54.0,46.0,75,29.76,10.0,NNW,12.7,-,N/A,,Clear,340,2013-03-16 08:53:00
4:53 AM,50.0,44.1,80,29.79,10.0,NNW,8.1,-,N/A,,Clear,340,2013-03-16 09:53:00
5:53 AM,48.0,43.0,83,29.81,8.0,North,16.1,-,N/A,,Clear,350,2013-03-16 10:53:00
6:51 AM,44.6,41.0,87,29.88,5.0,NNW,18.4,-,N/A,,Scattered Clouds,340,2013-03-16 11:51:00
6:53 AM,45.0,41.0,86,29.87,5.0,NNW,17.3,-,N/A,,Scattered Clouds,340,2013-03-16 11:53:00
7:03 AM,44.6,39.2,81,29.89,5.0,North,18.4,-,N/A,,Haze,350,2013-03-16 12:03:00
7:11 AM,44.6,39.2,81,29.90,5.0,North,16.1,-,N/A,,Overcast,350,2013-03-16 12:11:00
7:23 AM,44.6,39.2,81,29.91,4.0,NNW,20.7,25.3,N/A,,Overcast,340,2013-03-16 12:23:00
7:53 AM,43.0,39.9,89,29.93,3.0,NNW,21.9,-,N/A,,Overcast,340,2013-03-16 12:53:00
8:00 AM,42.8,39.2,87,29.93,2.5,North,20.7,-,N/A,,Overcast,350,2013-03-16 13:00:00
8:09 AM,42.8,37.4,81,29.93,3.0,North,25.3,31.1,N/A,,Overcast,350,2013-03-16 13:09:00
8:53 AM,39.9,37.0,89,29.95,3.0,North,15.0,-,N/A,,Overcast,360,2013-03-16 13:53:00
9:29 AM,41.0,35.6,81,29.96,5.0,NNE,12.7,-,N/A,,Haze,20,2013-03-16 14:29:00
9:53 AM,41.0,36.0,82,29.99,5.0,North,17.3,-,N/A,,Haze,360,2013-03-16 14:53:00
10:53 AM,43.0,36.0,76,30.00,8.0,North,16.1,24.2,N/A,,Overcast,10,2013-03-16 15:53:00
11:53 AM,44.1,35.1,71,30.01,10.0,NNE,12.7,-,N/A,,Overcast,20,2013-03-16 16:53:00
12:53 PM,45.0,35.1,68,30.02,10.0,North,12.7,-,N/A,,Overcast,10,2013-03-16 17:53:00
1:23 PM,46.4,35.6,66,30.01,10.0,NNE,15.0,-,N/A,,Scattered Clouds,20,2013-03-16 18:23:00
1:34 PM,46.4,35.6,66,30.01,9.0,NNE,11.5,-,N/A,,Mostly Cloudy,30,2013-03-16 18:34:00
1:53 PM,46.0,35.1,66,30.01,9.0,NE,10.4,-,N/A,,Overcast,40,2013-03-16 18:53:00
2:53 PM,45.0,35.1,68,29.99,8.0,NE,11.5,-,N/A,,Mostly Cloudy,40,2013-03-16 19:53:00
3:53 PM,45.0,34.0,65,30.00,9.0,NNE,15.0,20.7,N/A,,Overcast,30,2013-03-16 20:53:00
4:53 PM,44.1,33.1,65,30.02,9.0,NNE,11.5,-,N/A,,Overcast,20,2013-03-16 21:53:00
5:44 PM,44.6,33.8,66,30.00,10.0,NE,10.4,-,N/A,,Overcast,40,2013-03-16 22:44:00
5:53 PM,44.1,33.1,65,30.01,10.0,NE,11.5,-,N/A,,Overcast,40,2013-03-16 22:53:00
6:53 PM,43.0,33.1,68,30.02,10.0,NE,9.2,-,0.00,,Overcast,50,2013-03-16 23:53:00
7:53 PM,42.1,32.0,67,30.04,10.0,NE,9.2,-,N/A,,Overcast,40,2013-03-17 00:53:00
8:53 PM,39.9,30.9,70,30.04,10.0,NE,13.8,-,N/A,,Overcast,40,2013-03-17 01:53:00
9:53 PM,39.0,30.9,73,30.05,10.0,NE,15.0,21.9,0.00,,Overcast,40,2013-03-17 02:53:00
10:12 PM,39.2,30.2,70,30.04,10.0,NE,12.7,-,N/A,,Overcast,50,2013-03-17 03:12:00
10:53 PM,39.0,30.0,70,30.08,10.0,NE,10.4,-,N/A,,Overcast,50,2013-03-17 03:53:00
11:53 PM,39.0,30.0,70,30.07,10.0,NNE,10.4,-,N/A,,Overcast,30,2013-03-17 04:53:00